Vorticity
5 5 7 5 4 3 4 10 8 10 8 6 6 13 4 22 16 22 23 20 17 10 58 21 -1 6 13 6 3 3 4 7 8 5 4 7 7 10 8 8 7 10 7 5 7
6 4 5 4 5 4 4 5 14 12 7 10 9 11 13 20 15 10 3 7 14 15 22 48 38 8 7 17 7 4 1 4 8 6 3 7 9 11 7 6 9 10 4 2 5
5 5 5 4 6 7 6 5 14 12 11 10 17 13 22 22 23 21 25 21 18 14 9 16 30 44 14 8 16 8 2 1 4 8 5 6 6 8 5 6 11 10 5 6 6
6 5 6 4 8 9 8 6 12 19 9 20 12 26 17 28 20 24 28 27 25 26 17 37 13 16 32 12 14 8 3 2 2 8 8 7 8 5 4 7 10 6 10 8 3
6 6 5 3 8 11 9 12 19 9 19 21 22 10 1 34 23 31 18 26 16 24 24 32 -27 45 31 19 18 16 4 2 4 6 9 7 7 5 4 8 8 4 -1 8 4
6 6 5 4 9 13 8 15 12 13 22 19 15 24 -2 4 13 20 17 9 17 15 30 -24 36 -21 18 22 18 17 6 5 7 7 8 8 7 4 4 6 8 5 4 2 3
6 6 6 5 10 10 11 23 9 11 22 24 15 -9 12 4 23 13 39 17 13 41 22 -38 19 15 -7 24 18 19 12 7 9 7 8 7 6 3 5 6 8 7 1 2 2
5 6 6 7 13 7 14 19 15 13 18 22 13 3 10 10 13 41 9 39 16 30 -1 7 5 28 21 31 10 17 13 8 9 6 7 6 6 3 4 6 8 4 7 3 2
5 4 6 9 14 7 18 5 21 8 17 13 9 7 14 5 -2 15 39 23 33 3 13 -42 18 13 36 37 12 19 12 8 8 7 6 5 5 4 4 6 8 5 3 3 3
4 4 5 7 14 11 16 8 19 6 19 10 17 21 20 1 7 10 44 21 45 4 11 -9 19 7 -6 29 24 9 11 8 8 8 7 7 6 4 5 8 7 8 3 2 2
5 4 4 6 13 16 15 9 19 8 11 22 9 4 15 9 6 27 12 7 34 22 18 -47 20 9 0 50 23 21 12 10 11 7 6 6 6 5 7 7 7 7 7 5 2
8 4 4 5 13 19 18 10 16 8 -1 28 22 12 5 7 2 28 6 4 18 9 -14 20 -13 37 17 28 20 18 13 12 8 7 7 8 6 5 7 7 7 7 6 4 4
11 5 4 4 12 18 22 13 14 8 8 21 2 28 22 12 7 3 15 9 11 5 33 -11 9 42 7 22 11 16 12 11 8 5 7 10 8 6 6 5 5 6 6 6 5
11 7 3 5 13 16 22 14 11 12 14 10 23 19 21 8 10 10 7 21 16 20 22 33 19 23 2 24 5 16 6 10 15 9 7 7 10 7 7 7 5 4 5 2 5
9 11 4 6 10 12 19 11 9 14 14 16 30 14 16 6 19 9 6 22 7 16 -3 9 31 6 17 16 7 18 7 8 10 10 14 9 10 8 7 6 5 5 5 5 2
8 12 6 5 7 7 22 14 10 8 18 11 2 20 36 7 4 23 9 20 18 11 -14 11 18 6 29 19 6 16 7 7 6 14 11 10 9 9 7 5 8 5 4 6 7
9 11 11 5 5 13 12 16 17 9 15 9 9 9 24 29 17 17 18 17 9 4 15 -10 0 32 38 15 6 15 4 7 8 9 11 8 9 10 8 7 3 3 1 3 3
8 9 12 6 5 9 6 24 14 12 15 20 4 -1 8 23 13 10 21 42 11 13 7 7 4 28 19 13 15 9 9 10 3 1 6 6 12 6 5 5 6 4 7 9 9
7 9 11 8 6 6 12 15 21 22 13 15 15 11 11 11 15 14 17 13 12 29 21 -13 16 9 22 15 16 14 9 8 13 12 7 7 9 7 6 6 7 9 10 10 9
6 8 11 13 6 6 10 8 20 16 12 11 17 9 10 8 4 3 6 7 3 14 10 6 12 8 19 7 16 9 10 9 11 11 10 7 11 9 9 9 12 10 9 9 9
6 7 9 9 8 6 7 13 16 19 18 15 10 21 10 7 10 5 3 -1 13 1 12 8 12 10 21 13 8 11 8 9 5 10 11 10 11 10 9 8 14 10 8 9 10
7 6 9 8 14 7 6 11 9 15 19 15 15 12 10 18 13 12 10 11 6 2 7 7 12 21 27 11 10 11 11 8 7 10 14 11 12 12 10 11 11 8 8 8 3
7 6 7 9 8 11 6 6 13 14 16 18 15 14 10 6 20 21 17 16 16 10 11 13 12 18 21 12 8 9 8 7 10 6 8 7 10 9 12 12 9 8 6 6 5
9 6 6 7 8 11 7 7 8 10 12 18 18 16 16 6 13 10 14 14 14 18 12 11 14 17 21 17 13 8 7 7 7 9 9 9 12 12 13 9 7 7 6 8 8
10 5 6 6 10 9 14 6 7 12 15 14 20 16 16 6 4 22 24 10 9 16 9 24 4 14 19 17 11 8 7 6 8 9 9 12 11 11 9 8 6 6 6 8 6
6 6 6 5 7 9 10 14 7 4 9 10 14 21 14 13 8 14 10 14 24 16 6 14 17 13 23 19 16 6 8 5 5 7 9 10 6 9 7 6 7 9 5 2 2
5 9 5 6 5 9 8 9 12 6 4 9 9 8 16 14 14 6 11 8 21 10 15 20 14 17 23 20 15 15 7 5 5 5 7 3 7 6 8 4 3 0 3 4 4
Height
5764 5757 5750 5743 5738 5730 5721 5714 5704 5696 5688 5681 5675 5669 5664 5660 5657 5657 5660 5662 5664 5666 5672 5683 5696 5710 5721 5735 5748 5760 5771 5783 5795 5807 5818 5823 5829 5835 5841 5848 5852 5858 5863 5866 5869
5757 5751 5744 5737 5730 5721 5713 5704 5694 5685 5677 5670 5663 5655 5650 5645 5644 5644 5644 5645 5649 5652 5661 5667 5678 5690 5705 5719 5732 5745 5762 5775 5786 5798 5808 5816 5823 5830 5836 5842 5848 5854 5859 5862 5865
5752 5745 5737 5731 5722 5713 5703 5692 5682 5673 5666 5658 5650 5643 5636 5631 5629 5629 5627 5629 5634 5638 5647 5652 5662 5673 5689 5703 5719 5736 5752 5765 5777 5788 5798 5808 5815 5822 5830 5835 5844 5850 5854 5857 5860
5746 5738 5731 5723 5714 5703 5692 5682 5673 5663 5654 5646 5639 5632 5626 5622 5618 5614 5612 5615 5619 5626 5634 5640 5653 5662 5676 5690 5706 5723 5739 5754 5766 5778 5788 5800 5808 5815 5823 5830 5836 5842 5847 5853 5856
5740 5732 5725 5715 5705 5694 5684 5674 5664 5654 5645 5636 5630 5624 5620 5615 5610 5605 5604 5606 5611 5616 5623 5633 5648 5655 5667 5682 5694 5711 5727 5742 5756 5769 5780 5790 5800 5810 5817 5824 5829 5836 5842 5847 5852
5734 5726 5717 5707 5698 5687 5676 5666 5656 5647 5637 5629 5624 5618 5615 5609 5603 5600 5599 5601 5604 5611 5617 5628 5637 5648 5659 5671 5685 5703 5716 5733 5746 5761 5773 5783 5792 5801 5810 5816 5824 5831 5836 5842 5847
5728 5720 5711 5701 5691 5681 5670 5660 5651 5641 5631 5624 5619 5614 5610 5607 5600 5596 5594 5596 5599 5604 5609 5617 5632 5643 5654 5666 5678 5693 5708 5724 5737 5752 5765 5774 5784 5794 5803 5811 5818 5825 5831 5837 5842
5722 5715 5706 5696 5685 5675 5663 5654 5646 5637 5628 5621 5616 5612 5607 5604 5599 5593 5588 5590 5594 5600 5605 5614 5630 5638 5649 5656 5671 5683 5697 5713 5729 5745 5758 5768 5779 5787 5796 5804 5812 5819 5826 5832 5837
5718 5710 5702 5692 5681 5669 5659 5650 5641 5633 5625 5619 5614 5609 5606 5604 5600 5593 5586 5588 5592 5600 5606 5615 5626 5636 5644 5651 5662 5673 5690 5707 5724 5737 5750 5761 5773 5781 5790 5798 5806 5814 5822 5827 5833
5715 5706 5698 5688 5678 5666 5655 5647 5638 5631 5622 5616 5612 5608 5605 5604 5601 5596 5588 5592 5598 5604 5610 5620 5626 5634 5642 5647 5654 5671 5689 5704 5718 5731 5743 5755 5766 5775 5784 5792 5801 5809 5816 5823 5829
5712 5703 5694 5685 5675 5662 5652 5645 5638 5630 5621 5615 5611 5607 5603 5604 5604 5599 5598 5600 5604 5609 5614 5618 5626 5633 5642 5653 5666 5679 5692 5702 5713 5725 5738 5747 5760 5769 5778 5787 5796 5804 5812 5818 5823
5708 5700 5691 5683 5672 5659 5650 5642 5635 5629 5621 5615 5609 5605 5603 5603 5605 5604 5604 5608 5610 5614 5618 5624 5627 5631 5639 5647 5659 5669 5687 5698 5711 5722 5734 5743 5755 5764 5773 5782 5791 5799 5806 5812 5817
5705 5698 5689 5681 5669 5658 5648 5641 5634 5627 5621 5614 5609 5602 5601 5603 5606 5607 5606 5608 5612 5617 5618 5625 5627 5630 5639 5646 5656 5666 5682 5697 5711 5719 5730 5740 5751 5760 5769 5777 5784 5792 5798 5806 5813
5703 5696 5687 5679 5670 5658 5648 5640 5633 5627 5621 5616 5610 5604 5602 5603 5606 5608 5610 5611 5613 5617 5622 5626 5629 5633 5640 5648 5658 5668 5682 5696 5708 5718 5726 5734 5746 5755 5764 5773 5781 5788 5796 5802 5808
5701 5694 5686 5677 5669 5658 5649 5641 5634 5628 5623 5619 5612 5607 5605 5605 5608 5611 5612 5613 5615 5619 5625 5629 5630 5635 5640 5647 5659 5670 5679 5692 5703 5715 5724 5732 5744 5753 5760 5768 5776 5784 5791 5796 5803
5700 5692 5685 5677 5669 5659 5650 5642 5635 5630 5624 5620 5616 5610 5607 5606 5607 5611 5614 5617 5618 5621 5626 5630 5632 5636 5642 5648 5659 5668 5678 5689 5700 5710 5719 5728 5739 5748 5757 5766 5773 5779 5786 5792 5798
5699 5691 5684 5677 5670 5660 5651 5644 5638 5630 5627 5623 5619 5614 5611 5610 5610 5612 5617 5619 5622 5625 5628 5633 5636 5638 5643 5649 5659 5668 5675 5683 5695 5704 5714 5724 5735 5745 5752 5760 5767 5775 5781 5788 5794
5698 5691 5684 5677 5671 5662 5654 5646 5639 5633 5628 5624 5620 5619 5617 5616 5615 5616 5618 5622 5625 5627 5630 5635 5640 5643 5646 5653 5663 5668 5676 5686 5693 5702 5714 5724 5730 5741 5749 5756 5764 5771 5778 5784 5789
5698 5691 5684 5678 5672 5664 5656 5648 5641 5636 5631 5628 5624 5622 5622 5621 5620 5620 5623 5625 5628 5629 5633 5637 5640 5644 5649 5655 5663 5670 5678 5688 5696 5707 5716 5721 5728 5740 5747 5754 5761 5768 5775 5780 5784
5698 5691 5684 5678 5673 5666 5659 5651 5644 5639 5634 5630 5627 5625 5625 5624 5625 5625 5626 5629 5631 5632 5634 5637 5640 5645 5650 5657 5664 5672 5680 5688 5694 5703 5711 5719 5728 5738 5746 5753 5759 5766 5770 5775 5778
5697 5691 5685 5678 5673 5668 5661 5654 5647 5641 5637 5634 5631 5629 5628 5627 5627 5629 5631 5632 5633 5634 5636 5639 5643 5647 5652 5657 5664 5672 5678 5686 5694 5702 5709 5718 5727 5735 5742 5749 5754 5760 5765 5769 5772
5696 5691 5685 5679 5675 5669 5664 5657 5651 5645 5640 5637 5634 5632 5631 5630 5630 5630 5630 5632 5633 5635 5638 5640 5644 5646 5652 5656 5663 5671 5678 5685 5693 5702 5709 5717 5728 5733 5739 5745 5751 5756 5759 5763 5765
5694 5691 5685 5680 5675 5670 5666 5661 5655 5648 5643 5640 5637 5635 5634 5634 5633 5632 5633 5633 5634 5637 5639 5642 5644 5647 5651 5657 5663 5671 5678 5685 5692 5700 5707 5717 5724 5729 5735 5741 5745 5749 5753 5756 5760
5693 5690 5686 5680 5676 5672 5667 5664 5658 5653 5647 5642 5640 5638 5637 5636 5635 5634 5634 5634 5636 5637 5639 5642 5645 5647 5653 5659 5663 5670 5677 5683 5691 5698 5706 5713 5720 5726 5731 5736 5740 5744 5748 5751 5753
5690 5688 5685 5680 5676 5673 5669 5665 5661 5656 5652 5647 5644 5641 5639 5639 5638 5636 5635 5635 5636 5636 5638 5641 5645 5648 5650 5655 5661 5667 5673 5680 5689 5696 5704 5711 5717 5723 5728 5733 5736 5739 5743 5746 5748
5687 5686 5683 5680 5676 5673 5670 5667 5664 5660 5656 5652 5648 5645 5643 5643 5642 5640 5639 5638 5638 5638 5639 5641 5644 5647 5650 5654 5659 5666 5672 5680 5687 5695 5703 5710 5715 5720 5724 5728 5731 5735 5738 5739 5741
5683 5683 5682 5680 5676 5674 5671 5668 5665 5663 5660 5656 5653 5650 5648 5647 5645 5644 5643 5642 5641 5641 5641 5641 5643 5647 5651 5654 5659 5666 5673 5680 5687 5694 5700 5706 5711 5715 5719 5723 5726 5729 5731 5733 5734